TimeCDT,TemperatureF,Dew PointF,Humidity,Sea Level PressureIn,VisibilityMPH,Wind Direction,Wind SpeedMPH,Gust SpeedMPH,PrecipitationIn,Events,Conditions,WindDirDegrees,DateUTC
12:15 AM,62.6,60.8,94,29.71,10.0,South,8.1,-,N/A,,Mostly Cloudy,180,2013-05-31 05:15:00
12:35 AM,62.6,60.8,94,29.70,10.0,South,10.4,-,N/A,,Overcast,180,2013-05-31 05:35:00
12:55 AM,62.6,60.8,94,29.71,10.0,South,10.4,-,N/A,,Overcast,180,2013-05-31 05:55:00
1:15 AM,62.6,60.8,94,29.68,10.0,SSE,10.4,-,N/A,,Scattered Clouds,160,2013-05-31 06:15:00
1:35 AM,62.6,59.0,88,29.70,10.0,South,11.5,-,N/A,,Clear,190,2013-05-31 06:35:00
1:55 AM,62.6,59.0,88,29.71,10.0,South,11.5,17.3,N/A,,Mostly Cloudy,180,2013-05-31 06:55:00
2:15 AM,62.6,60.8,94,29.71,10.0,South,10.4,-,N/A,,Mostly Cloudy,190,2013-05-31 07:15:00
2:35 AM,62.6,60.8,94,29.72,10.0,South,11.5,-,N/A,,Overcast,190,2013-05-31 07:35:00
2:55 AM,62.6,60.8,94,29.72,10.0,South,12.7,-,N/A,,Overcast,190,2013-05-31 07:55:00
3:15 AM,62.6,60.8,94,29.71,10.0,South,10.4,16.1,N/A,,Overcast,190,2013-05-31 08:15:00
3:35 AM,62.6,60.8,94,29.70,-9999.0,SSW,10.4,-,N/A,,Overcast,200,2013-05-31 08:35:00
3:55 AM,62.6,60.8,94,29.70,10.0,South,13.8,-,N/A,,Overcast,180,2013-05-31 08:55:00
4:15 AM,62.6,60.8,94,29.71,10.0,South,13.8,-,N/A,,Overcast,190,2013-05-31 09:15:00
4:35 AM,62.6,60.8,94,29.70,10.0,South,9.2,-,N/A,,Overcast,190,2013-05-31 09:35:00
4:55 AM,62.6,60.8,94,29.69,10.0,South,8.1,-,N/A,,Scattered Clouds,170,2013-05-31 09:55:00
5:15 AM,62.6,60.8,94,29.68,10.0,SSE,10.4,-,N/A,,Mostly Cloudy,160,2013-05-31 10:15:00
5:35 AM,62.6,60.8,94,29.68,10.0,SSE,12.7,-,N/A,,Overcast,150,2013-05-31 10:35:00
5:55 AM,62.6,60.8,94,29.69,7.0,South,12.7,-,N/A,,Overcast,170,2013-05-31 10:55:00
6:15 AM,62.6,60.8,94,29.69,9.0,South,12.7,-,N/A,,Overcast,170,2013-05-31 11:15:00
6:35 AM,62.6,60.8,94,29.68,10.0,South,10.4,17.3,N/A,,Overcast,170,2013-05-31 11:35:00
6:55 AM,62.6,60.8,94,29.68,10.0,SSE,9.2,-,N/A,,Overcast,160,2013-05-31 11:55:00
7:15 AM,62.6,60.8,94,29.67,10.0,SE,6.9,-,N/A,,Scattered Clouds,140,2013-05-31 12:15:00
7:35 AM,62.6,60.8,94,29.66,10.0,SSE,5.8,-,N/A,,Clear,150,2013-05-31 12:35:00
7:55 AM,62.6,60.8,94,29.66,10.0,SSE,6.9,-,N/A,,Clear,150,2013-05-31 12:55:00
8:15 AM,64.4,60.8,88,29.68,10.0,SSE,8.1,-,N/A,,Clear,160,2013-05-31 13:15:00
8:35 AM,64.4,60.8,88,29.68,10.0,South,10.4,-,N/A,,Clear,170,2013-05-31 13:35:00
8:55 AM,68.0,60.8,78,29.68,10.0,SSW,13.8,21.9,N/A,,Clear,200,2013-05-31 13:55:00
9:15 AM,69.8,60.8,73,29.69,10.0,SSW,16.1,25.3,N/A,,Clear,200,2013-05-31 14:15:00
9:35 AM,69.8,59.0,68,29.69,10.0,SSW,16.1,24.2,N/A,,Clear,200,2013-05-31 14:35:00
9:55 AM,71.6,59.0,64,29.69,10.0,South,18.4,28.8,N/A,,Clear,180,2013-05-31 14:55:00
10:15 AM,71.6,59.0,64,29.70,10.0,SSW,18.4,26.5,N/A,,Clear,200,2013-05-31 15:15:00
10:35 AM,71.6,59.0,64,29.72,10.0,SSW,16.1,25.3,N/A,,Partly Cloudy,200,2013-05-31 15:35:00
10:55 AM,71.6,59.0,64,29.73,10.0,SSW,15.0,25.3,N/A,,Mostly Cloudy,200,2013-05-31 15:55:00
11:15 AM,71.6,59.0,64,29.73,10.0,South,18.4,-,N/A,,Mostly Cloudy,180,2013-05-31 16:15:00
11:35 AM,69.8,59.0,68,29.74,10.0,South,16.1,26.5,N/A,,Overcast,190,2013-05-31 16:35:00
11:55 AM,69.8,59.0,68,29.74,10.0,SSW,15.0,21.9,N/A,,Overcast,200,2013-05-31 16:55:00
12:15 PM,69.8,59.0,68,29.75,10.0,SSW,19.6,-,N/A,,Overcast,200,2013-05-31 17:15:00
12:35 PM,69.8,59.0,68,29.74,10.0,SSW,23.0,29.9,N/A,,Overcast,200,2013-05-31 17:35:00
12:55 PM,68.0,59.0,73,29.73,10.0,South,18.4,-,N/A,,Overcast,180,2013-05-31 17:55:00
1:15 PM,66.2,59.0,78,29.74,10.0,SSW,16.1,25.3,N/A,,Overcast,200,2013-05-31 18:15:00
1:35 PM,66.2,59.0,78,29.75,10.0,South,16.1,24.2,N/A,,Overcast,190,2013-05-31 18:35:00
1:55 PM,66.2,60.8,83,29.75,10.0,South,17.3,-,N/A,,Overcast,180,2013-05-31 18:55:00
2:15 PM,68.0,60.8,78,29.74,10.0,South,15.0,25.3,N/A,,Overcast,180,2013-05-31 19:15:00
2:35 PM,69.8,62.6,78,29.73,10.0,SSW,17.3,-,N/A,,Mostly Cloudy,200,2013-05-31 19:35:00
2:55 PM,69.8,62.6,78,29.73,10.0,SSW,12.7,23.0,N/A,,Mostly Cloudy,200,2013-05-31 19:55:00
3:15 PM,69.8,62.6,78,29.72,10.0,South,13.8,23.0,N/A,,Mostly Cloudy,190,2013-05-31 20:15:00
3:35 PM,71.6,62.6,73,29.71,10.0,SSW,12.7,23.0,N/A,,Partly Cloudy,200,2013-05-31 20:35:00
3:55 PM,71.6,62.6,73,29.71,10.0,SW,10.4,19.6,N/A,,Mostly Cloudy,220,2013-05-31 20:55:00
4:15 PM,73.4,62.6,69,29.71,10.0,SSW,13.8,20.7,N/A,,Mostly Cloudy,200,2013-05-31 21:15:00
4:35 PM,73.4,62.6,69,29.70,10.0,South,15.0,-,N/A,,Partly Cloudy,190,2013-05-31 21:35:00
4:55 PM,73.4,62.6,69,29.70,10.0,South,16.1,-,N/A,,Clear,180,2013-05-31 21:55:00
5:15 PM,73.4,62.6,69,29.68,10.0,South,12.7,-,N/A,,Clear,180,2013-05-31 22:15:00
5:35 PM,73.4,62.6,69,29.66,10.0,SSE,12.7,18.4,N/A,,Clear,160,2013-05-31 22:35:00
5:55 PM,73.4,62.6,69,29.67,10.0,South,12.7,-,N/A,,Clear,180,2013-05-31 22:55:00
6:15 PM,75.2,64.4,69,29.67,10.0,South,15.0,-,N/A,,Clear,190,2013-05-31 23:15:00
6:35 PM,75.2,64.4,69,29.68,10.0,South,13.8,-,N/A,,Clear,180,2013-05-31 23:35:00
6:55 PM,75.2,64.4,69,29.68,10.0,South,12.7,23.0,N/A,,Clear,180,2013-05-31 23:55:00
7:15 PM,73.4,64.4,73,29.67,10.0,South,12.7,21.9,N/A,,Clear,180,2013-06-01 00:15:00
8:15 PM,71.6,64.4,78,29.65,10.0,South,10.4,16.1,N/A,,Partly Cloudy,190,2013-06-01 01:15:00
8:35 PM,71.6,64.4,78,29.67,10.0,SSW,10.4,-,N/A,,Partly Cloudy,200,2013-06-01 01:35:00
8:55 PM,69.8,64.4,83,29.68,10.0,SSW,6.9,-,N/A,,Partly Cloudy,200,2013-06-01 01:55:00
9:15 PM,68.0,64.4,88,29.69,10.0,South,9.2,-,N/A,,Clear,190,2013-06-01 02:15:00
9:35 PM,68.0,64.4,88,29.69,10.0,South,6.9,-,N/A,,Clear,190,2013-06-01 02:35:00
9:55 PM,68.0,64.4,88,29.70,10.0,South,6.9,-,N/A,,Clear,190,2013-06-01 02:55:00
10:15 PM,66.2,64.4,94,29.69,10.0,SSW,5.8,-,N/A,,Clear,200,2013-06-01 03:15:00
10:35 PM,66.2,64.4,94,29.70,10.0,South,8.1,-,N/A,,Clear,170,2013-06-01 03:35:00
10:55 PM,66.2,64.4,94,29.68,10.0,South,8.1,-,N/A,,Clear,190,2013-06-01 03:55:00
11:15 PM,66.2,64.4,94,29.69,10.0,SSW,9.2,-,N/A,,Clear,200,2013-06-01 04:15:00
11:35 PM,66.2,62.6,88,29.67,10.0,SSW,8.1,-,N/A,,Clear,210,2013-06-01 04:35:00
11:55 PM,66.2,62.6,88,29.67,10.0,SSW,6.9,-,N/A,,Clear,200,2013-06-01 04:55:00